Terminal Aerodrome Forecast
Issued by NWS Pittsburgh, PA

Current Version | Previous Version | Graphics & Text | Print | Product List | Glossary On
Versions: 1 2 3 4 5 6 7 8 9 10 11 12 13 14 15 16 17 18 19 20 21 22 23 24 25 26 27 28 29
000
FTUS41 KPBZ 211455 AAA
TAFPIT
TAF AMD
KPIT 211455Z 2115/2218 21008KT P6SM SCT050
     FM220100 22003KT P6SM BKN250
     FM221500 23012KT P6SM SCT100=

USA.gov is the U.S. government's official web portal to all federal, state and local government web resources and services.